Regional Weather Roundup
Issued by NWS

Home | Current Version | Previous Version | Graphics & Text | Print | Product List | Glossary On
Versions: 1 2 3 4 5 6 7 8 9 10 11 12 13 14 15 16 17 18 19 20 21 22 23 24 25 26 27 28 29 30 31 32 33 34 35 36 37 38 39 40 41 42 43 44 45 46 47 48 49 50
000
ASUS43 KTOP 290959
RWRKS

WEATHER ROUNDUP FOR KANSAS
NATIONAL WEATHER SERVICE GOODLAND KS
500 AM CDT SUN MAY 29 2016

NOTE:  "FAIR" INDICATES FEW OR NO CLOUDS BELOW 12,000 FEET WITH NO
SIGNIFICANT WEATHER AND/OR OBSTRUCTIONS TO VISIBILITY.

KSZ001>006-013>018-027>032-041>047-291100-
NORTHWEST KANSAS

CITY           SKY/WX    TMP DP  RH WIND       PRES   REMARKS
GOODLAND       CLEAR     51  47  86 S3        30.10F
HAYS           CLEAR     55  46  71 W6        30.07S
HILL CITY      CLEAR     53  50  89 CALM      30.07S
RUSSELL        CLEAR     57  54  89 SW6       30.05R
$$

KSZ061>065-074>080-084>089-291100-
SOUTHWEST KANSAS

CITY           SKY/WX    TMP DP  RH WIND       PRES   REMARKS
DODGE CITY     CLOUDY    59  53  80 SE10      30.08F
ELKHART          N/A     61  49  65 S6          N/A
GARDEN CITY    PTCLDY    59  49  69 SE3       30.09R
GREAT BEND     CLEAR     59  50  72 S5        30.07R
LIBERAL        CLOUDY    61  48  63 S3        30.10R
$$

KSZ066>073-081>083-090>101-291100-
SOUTHEAST KANSAS

CITY           SKY/WX    TMP DP  RH WIND       PRES   REMARKS
CHANUTE        CLEAR     61  59  93 CALM      30.07R FOG
COFFEYVILLE    CLEAR     62  61  96 CALM      30.06R
HUTCHINSON     CLEAR     59  57  93 E3        30.07R
MEDICINE LODGE   N/A     58  53  84 CALM      30.07R
NEWTON         CLEAR     61  54  77 S7        30.10R
PARSONS        CLEAR     60  59  96 CALM      30.08R
WICHITA INTL   PTCLDY    60  57  89 S3        30.07R
WICHITA JABRA  CLEAR     59  58  96 SE3       30.07R
WINFIELD       CLEAR     61  59  93 N3        30.08R
$$

KSZ007>012-019>026-033>040-048>060-102>105-291100-
NORTHEAST KANSAS

CITY           SKY/WX    TMP DP  RH WIND       PRES   REMARKS
CONCORDIA      CLEAR     61  54  77 SW7       30.03F
EMPORIA        CLEAR     59  56  89 S7        30.06R
LAWRENCE       CLEAR     57  56  96 E3        30.05R
MANHATTAN      CLEAR     57  55  93 CALM      30.03S
OLATHE IND     CLEAR     61  58  90 S5        30.06R
OLATHE EXE     CLEAR     59  57  93 S3        30.05S
SALINA         CLEAR     59  56  89 CALM      30.05R
TOPEKA BILLARD CLEAR     58  56  93 CALM      30.04R
TOPEKA FORBES  CLEAR     60  58  92 S5        30.04S
$$




USA.gov is the U.S. government's official web portal to all federal, state and local government web resources and services.